Weather History for KNBC - June, 2013

Change the Weather History Date:

Tuesday, June 25, 2013

  Actual Average Record
Temperature  
Mean Temperature 82 °F -  
Max Temperature 90 °F 89 °F 104 °F (1950)
Min Temperature 75 °F 71 °F 37 °F (2001)
Cooling Degree Days 17    
Growing Degree Days 32 (Base 50)    
Moisture  
Dew Point 72 °F    
Average Humidity 76    
Maximum Humidity 94    
Minimum Humidity 57    
Precipitation  
Precipitation 0.00 in - - ()
Sea Level Pressure  
Sea Level Pressure 30.13 in    
Wind  
Wind Speed 4 mph (SSW)    
Max Wind Speed 13 mph    
Max Gust Speed -    
Visibility 10 miles    
Events Rain , Thunderstorm    
Averages and records for this station are not official NWS values.
T = Trace of Precipitation, MM = Missing Value Source: NWS Daily Summary

Daily Weather History Graph

Daily Weather History Graph

Search for Another Location

Airport or City:

Trip Planner

Search our weather history database for the weather conditions in past years. The results will help you decide how hot, cold, wet, or windy it might be!

Date:

Astronomy

Jun. 25, 2013 Rise Set
Actual Time 6:17 AM EDT 8:33 PM EDT
Civil Twilight 5:48 AM EDT 9:02 PM EDT
Nautical Twilight 5:13 AM EDT 9:37 PM EDT
Astronomical Twilight 4:35 AM EDT 10:15 PM EDT
Moon 10:29 PM EDT (6/25) 8:46 AM EDT (6/25)
Length of Visible Light 15h 13m
Length of Day
14h 16m
Waning Gibbous, 93% of the Moon is Illuminated
Jun 25
Waning Gibbous
Jun 30
Last Quarter
Jul 8
New
Jul 15
First Quarter
Jul 22
Full

Hourly Weather History & Observations

Time (EDT) Temp. Heat Index Dew Point Humidity Pressure Visibility Wind Dir Wind Speed Gust Speed Precip Events Conditions
12:56 AM 80.1 °F 84.2 °F 73.0 °F 79% 30.17 in 10.0 mi SSW 4.6 mph - N/A   Clear
1:56 AM 79.0 °F - 73.9 °F 84% 30.15 in 10.0 mi SSW 3.5 mph - N/A   Scattered Clouds
2:32 AM 79.0 °F - 73.9 °F 84% 30.13 in 10.0 mi SSW 4.6 mph - N/A   Mostly Cloudy
2:43 AM 79.0 °F - 73.9 °F 84% 30.13 in 10.0 mi SSW 4.6 mph - N/A   Scattered Clouds
2:56 AM 77.0 °F - 73.0 °F 88% 30.13 in 10.0 mi West 3.5 mph - N/A   Scattered Clouds
3:12 AM 77.0 °F - 73.0 °F 88% 30.13 in 10.0 mi Calm Calm - N/A   Mostly Cloudy
3:52 AM 75.2 °F - 71.6 °F 89% 30.13 in 10.0 mi Calm Calm - N/A   Scattered Clouds
3:56 AM 75.9 °F - 73.0 °F 91% 30.13 in 10.0 mi Calm Calm - N/A   Scattered Clouds
4:56 AM 75.9 °F - 73.0 °F 91% 30.14 in 6.0 mi Calm Calm - N/A   Clear
5:04 AM 75.0 °F - 72.0 °F 90% 30.14 in 1.8 mi NNW 3.5 mph - N/A   Partly Cloudy
5:12 AM 75.0 °F - 72.0 °F 90% 30.14 in 2.5 mi Calm Calm - N/A   Mostly Cloudy
5:19 AM 75.0 °F - 73.0 °F 94% 30.14 in 10.0 mi Calm Calm - N/A   Scattered Clouds
5:56 AM 75.0 °F - 73.0 °F 94% 30.15 in 10.0 mi Calm Calm - N/A   Scattered Clouds
6:08 AM 75.0 °F - 72.0 °F 90% 30.15 in 10.0 mi Calm Calm - N/A   Mostly Cloudy
6:16 AM 75.0 °F - 72.0 °F 90% 30.15 in 10.0 mi Calm Calm - N/A   Scattered Clouds
6:56 AM 75.0 °F - 72.0 °F 90% 30.17 in 10.0 mi Calm Calm - N/A   Scattered Clouds
7:56 AM 80.1 °F 85.1 °F 75.0 °F 85% 30.17 in 10.0 mi Calm Calm - N/A   Scattered Clouds
8:56 AM 82.0 °F 87.9 °F 73.9 °F 76% 30.18 in 10.0 mi WSW 6.9 mph - N/A   Mostly Cloudy
9:56 AM 82.0 °F 86.7 °F 72.0 °F 71% 30.18 in 10.0 mi WSW 5.8 mph - N/A   Mostly Cloudy
10:56 AM 84.0 °F 89.6 °F 72.0 °F 67% 30.17 in 10.0 mi Variable 4.6 mph - N/A   Mostly Cloudy
11:56 AM 84.9 °F 89.4 °F 70.0 °F 61% 30.17 in 10.0 mi Variable 4.6 mph - N/A   Mostly Cloudy
12:03 PM 86.0 °F 90.7 °F 70.0 °F 59% 30.16 in 10.0 mi West 9.2 mph - N/A   Mostly Cloudy
12:41 PM 84.0 °F 87.8 °F 69.1 °F 61% 30.16 in 10.0 mi ENE 4.6 mph - 0.00 in Thunderstorm Thunderstorm
12:56 PM 82.9 °F 86.5 °F 69.1 °F 63% 30.16 in 10.0 mi NE 4.6 mph - 0.00 in Thunderstorm Thunderstorm
1:56 PM 88.0 °F 96.5 °F 73.9 °F 63% 30.14 in 10.0 mi SSE 3.5 mph - N/A Thunderstorm Thunderstorm
2:23 PM 86.0 °F 93.8 °F 73.9 °F 67% 30.12 in 10.0 mi SSW 8.1 mph - N/A   Mostly Cloudy
2:56 PM 82.9 °F 87.5 °F 71.1 °F 67% 30.12 in 10.0 mi SSW 6.9 mph - 0.00 in Rain Light Rain
3:56 PM - - - N/A% 30.10 in 10.0 mi South 5.8 mph - 0.00 in   Mostly Cloudy
4:46 PM 89.1 °F - - N/A% 30.08 in 10.0 mi Variable 4.6 mph - N/A Thunderstorm Mostly Cloudy
4:56 PM 88.0 °F 94.7 °F 72.0 °F 59% 30.08 in 10.0 mi South 6.9 mph - N/A Thunderstorm Mostly Cloudy
5:26 PM 89.1 °F 96.0 °F 72.0 °F 57% 30.08 in 10.0 mi SSW 5.8 mph - N/A   Mostly Cloudy
5:56 PM 87.1 °F 92.8 °F 71.1 °F 59% 30.08 in 10.0 mi Variable 4.6 mph - N/A   Mostly Cloudy
6:56 PM 84.0 °F 88.4 °F 70.0 °F 63% 30.08 in 10.0 mi SSW 6.9 mph - N/A   Mostly Cloudy
7:56 PM 82.0 °F 86.3 °F 71.1 °F 69% 30.09 in 10.0 mi SSW 5.8 mph - N/A Thunderstorm Thunderstorm
8:02 PM 82.0 °F 86.3 °F 71.1 °F 69% 30.09 in 10.0 mi SSW 5.8 mph - N/A   Mostly Cloudy
8:56 PM 79.0 °F - 68.0 °F 69% 30.09 in 10.0 mi WSW 12.7 mph - N/A   Mostly Cloudy
9:56 PM 79.0 °F - 66.0 °F 64% 30.09 in 10.0 mi SSW 8.1 mph - N/A   Mostly Cloudy
10:56 PM 79.0 °F - 66.9 °F 66% 30.09 in 10.0 mi SSW 3.5 mph - N/A   Mostly Cloudy
11:56 PM 78.1 °F - 70.0 °F 76% 30.09 in 10.0 mi SW 4.6 mph - N/A   Clear